Flag for U.S.A. Weather past 2 weeks in Casper, Wyoming, U.S.A.

Now
40 °F

Partly sunny.


Feels Like: 32 °F
Forecast: 13 / 36 °F
Wind: 14 mph from Southwest

Location: Natrona County International Airport

Current Time: Mar 2, 2015 at 12:57:03 PM

Latest Report: Mar 2, 2015 at 11:53 AM


Visibility: 10 mi

Pressure: 29.82 "Hg

Humidity: 63%

Dew point: 28 °F

Location of CasperLocation

Historic Weather in Casper — Graph

°F

Casper temperature yesterday

Maximum temperature yesterday: 30 °F (at 1:53 PM)
Minimum temperature yesterday: 7 °F (at 5:53 AM)
Average temperature yesterday: 20 °F

Past Weeks' High & Low Weather Summary

 TemperatureHumidityPressure
High56 °F (Feb 19, 1:53 PM)96% (Feb 16, 2:53 AM)30.69 "Hg (Feb 16, 2:53 AM)
Low-7 °F (Feb 22, 10:53 PM)24% (Feb 19, 3:53 PM)29.80 "Hg (Feb 20, 3:53 AM)
Average21 °F71%30.19 "Hg
* Reported Feb 15 10:57 AM — Mar 2 10:53 AM, Casper, Weather by CustomWeather, © 2015

Note: Actual official high and low records may vary slightly from our data, if they occured in-between our weather recording intervals... More about our weather records

Advertising

Casper weather history for previous 24 hours

 ConditionsComfort  
Time TempWeatherWind HumidityBarometerVisibility
10:53 AM
Mon, Mar 2
36 °FScattered clouds.6 mph59%29.87 "Hg10 mi
9:53 AM30 °FSunny.3 mph66%29.91 "Hg10 mi
8:53 AM25 °FPartly sunny.No wind75%29.96 "Hg10 mi
7:53 AM22 °FSunny.5 mph78%29.98 "Hg10 mi
6:53 AM19 °FSunny.5 mph85%29.99 "Hg9 mi
5:53 AM22 °FClear.6 mph78%30.01 "Hg10 mi
4:53 AM20 °FClear.6 mph82%30.00 "Hg10 mi
3:53 AM19 °FPassing clouds.3 mph81%30.03 "Hg10 mi
2:53 AM18 °FPassing clouds.6 mph80%30.05 "Hg10 mi
1:53 AM19 °FClear.3 mph74%30.07 "Hg10 mi
12:53 AM20 °FClear.No wind71%30.12 "Hg10 mi
11:53 PM
Sun, Mar 1
19 °FClear.No wind74%30.16 "Hg10 mi
10:53 PM20 °FClear.3 mph71%30.19 "Hg10 mi
9:53 PM21 °FClear.7 mph71%30.21 "Hg10 mi
8:53 PM21 °FClear.8 mph71%30.24 "Hg10 mi
7:53 PM22 °FClear.10 mph68%30.29 "Hg10 mi
6:53 PM23 °FClear.8 mph63%30.30 "Hg10 mi
5:53 PM24 °FSunny.No wind57%30.31 "Hg10 mi
4:53 PM29 °FSunny.No wind39%30.27 "Hg10 mi
3:53 PM29 °FSunny.No wind39%30.29 "Hg10 mi
2:53 PM30 °FSunny.3 mph38%30.28 "Hg10 mi
1:53 PM30 °FSunny.10 mph40%30.29 "Hg10 mi
12:53 PM28 °FSunny.9 mph43%30.33 "Hg10 mi
Weather by CustomWeather, © 2015

See weather overviewHow to use our weather pages